EW0890 Weather Reports


time (UTC)temp
F
wind
direction
speed
knots
gust
knots
rain 1hr
in
rain 24hr
in
rain mn
in
humidity
%
barometer
mb
20260905053012 76 284 0.0 0.0 0.00 0.00 0.00 92 1013.8
20260905052505 76 284 0.0 0.0 0.00 0.00 0.00 91 1013.7
20260905052004 76 284 0.0 0.0 0.00 0.00 0.00 92 1013.7
20260905051558 76 0 0.0 0.0 0.00 0.00 0.00 92 1014.1
20260905051523 76 284 0.0 0.0 0.00 0.00 0.00 92 1013.8
20260905051005 76 284 0.0 0.0 0.00 0.00 0.00 92 1013.8
20260905050503 75 284 0.0 0.0 0.00 0.00 0.00 93 1013.8
20260905050110 75 0 0.0 0.0 0.00 0.00 0.00 93 1014.2
20260905050013 75 284 0.0 0.0 0.00 0.00 0.00 93 1013.8
20260905045503 75 284 0.0 0.0 0.00 0.00 0.00 93 1013.7
20260905045003 75 284 0.0 0.0 0.00 0.00 0.00 92 1013.6
20260905044601 76 0 0.0 0.0 0.00 0.00 0.00 92 1013.9
20260905044508 76 284 0.0 0.0 0.00 0.00 0.00 92 1013.7
20260905044004 76 284 0.0 0.0 0.00 0.00 0.00 92 1013.8
20260905043504 76 284 0.0 0.0 0.00 0.00 0.00 92 1013.9
20260905043105 76 0 0.0 0.0 0.00 0.00 0.00 91 1014.0
20260905043011 76 284 0.0 0.0 0.00 0.00 0.00 91 1013.8
20260905042508 76 284 0.0 0.0 0.00 0.00 0.00 91 1013.8
20260905042003 76 284 0.0 0.0 0.00 0.00 0.00 92 1013.9
20260905041600 76 0 0.0 0.0 0.00 0.00 0.00 92 1014.0
20260905041512 76 284 0.0 0.0 0.00 0.00 0.00 92 1013.8
20260905041003 76 284 0.0 0.0 0.00 0.00 0.00 92 1013.8
20260905040505 76 284 0.0 0.0 0.00 0.00 0.00 92 1013.8
20260905040106 76 0 0.0 0.0 0.00 0.00 0.00 92 1013.9
20260905040014 76 284 0.0 0.0 0.00 0.00 0.00 92 1013.9
20260905035504 76 284 0.0 0.0 0.00 0.00 0.00 92 1013.8
20260905035003 76 284 0.0 0.0 0.00 0.00 0.00 92 1013.8
20260905034617 76 0 0.0 0.0 0.00 0.00 0.00 92 1013.9
20260905034516 76 284 0.0 0.0 0.00 0.00 0.00 92 1013.7
20260905034006 76 284 0.0 0.0 0.00 0.00 0.00 92 1013.7
20260905033509 76 284 0.0 0.0 0.00 0.00 0.00 92 1013.6
20260905033118 76 0 0.0 0.0 0.00 0.00 0.00 92 1013.8
20260905033005 76 284 0.0 0.0 0.00 0.00 0.00 92 1013.7
20260905032505 76 284 0.0 0.0 0.00 0.00 0.00 92 1013.8
20260905032005 76 284 0.0 0.0 0.00 0.00 0.00 92 1014.0
20260905031614 76 0 0.0 0.0 0.00 0.00 0.00 93 1014.1
20260905031514 76 284 0.0 0.0 0.00 0.00 0.00 93 1013.9
20260905031006 77 284 0.0 0.0 0.00 0.00 0.00 92 1013.8
20260905030506 77 284 0.0 0.0 0.00 0.00 0.00 92 1013.8
20260905030104 77 0 0.0 0.0 0.00 0.00 0.00 92 1014.0
20260905030015 77 284 0.0 0.0 0.00 0.00 0.00 92 1013.8
20260905025507 77 284 0.0 0.0 0.00 0.00 0.00 92 1013.8
20260905025007 77 284 0.0 0.0 0.00 0.00 0.00 92 1013.8
20260905024558 77 0 0.0 0.0 0.00 0.00 0.00 92 1013.9
20260905024515 77 284 0.0 0.0 0.00 0.00 0.00 92 1013.8
20260905024007 77 284 0.0 0.0 0.00 0.00 0.00 92 1013.9
20260905023507 78 284 0.0 0.0 0.00 0.00 0.00 92 1013.9
20260905023126 78 0 0.0 0.0 0.00 0.00 0.00 92 1014.0
20260905023019 78 284 0.0 0.0 0.00 0.00 0.00 92 1013.9
20260905022511 78 283 0.0 0.0 0.00 0.00 0.00 91 1013.8
20260905022010 78 284 0.0 0.0 0.00 0.00 0.00 92 1013.8
20260905021602 78 0 0.0 0.0 0.00 0.00 0.00 92 1014.0
20260905021508 78 284 0.0 0.0 0.00 0.00 0.00 92 1013.8
20260905021003 78 283 0.0 0.0 0.00 0.00 0.00 91 1013.7
20260905020506 79 284 0.0 0.0 0.00 0.00 0.00 91 1013.6
20260905020100 79 0 0.0 0.0 0.00 0.00 0.00 91 1013.6
20260905020014 79 284 0.0 0.0 0.00 0.00 0.00 91 1013.5
20260905015507 79 283 0.0 0.0 0.00 0.00 0.00 92 1013.6
20260905015008 79 283 0.0 0.0 0.00 0.00 0.00 91 1013.5
20260905014559 79 0 0.0 0.0 0.00 0.00 0.00 90 1013.7
20260905014516 79 284 0.0 0.0 0.00 0.00 0.00 90 1013.5
20260905014011 79 284 0.0 0.0 0.00 0.00 0.00 90 1013.3
20260905013507 79 283 0.0 0.0 0.00 0.00 0.00 90 1013.2
20260905013100 80 0 0.0 0.0 0.00 0.00 0.00 90 1013.3
20260905013017 80 284 0.0 0.0 0.00 0.00 0.00 90 1013.2
20260905012508 80 283 0.0 0.0 0.00 0.00 0.00 89 1013.3
20260905012008 80 284 0.0 0.0 0.00 0.00 0.00 89 1013.2
20260905011604 80 0 0.0 0.0 0.00 0.00 0.00 89 1013.3
20260905011517 80 283 0.0 0.0 0.00 0.00 0.00 89 1013.2
20260905011008 81 283 0.0 0.0 0.00 0.00 0.00 88 1013.1
20260905010507 81 284 0.0 0.0 0.00 0.00 0.00 88 1013.1
20260905010112 81 0 0.0 0.0 0.00 0.00 0.00 87 1013.1
20260905010009 81 284 0.0 0.0 0.00 0.00 0.00 87 1013.1
20260905005505 82 284 0.0 0.0 0.00 0.00 0.00 87 1013.1
20260905005008 82 284 0.0 0.0 0.00 0.00 0.00 86 1012.9
20260905004627 83 0 0.0 0.0 0.00 0.00 0.00 85 1013.0
20260905004516 83 284 0.0 0.0 0.00 0.00 0.00 85 1012.9
20260905004007 84 283 0.0 0.0 0.00 0.00 0.00 84 1012.9
20260905003509 84 284 0.0 0.9 0.00 0.00 0.00 84 1012.9
20260905003122 85 0 0.0 0.9 0.00 0.00 0.00 83 1013.0
20260905003028 85 283 0.0 0.9 0.00 0.00 0.00 83 1012.9
20260905002505 86 283 0.0 0.0 0.00 0.00 0.00 81 1012.9
20260905002008 87 284 0.0 0.0 0.00 0.00 0.00 79 1013.0
20260905001603 88 0 0.0 0.0 0.00 0.00 0.00 78 1013.1
20260905001516 88 284 0.0 0.0 0.00 0.00 0.00 77 1012.9
20260905001007 90 283 0.0 0.0 0.00 0.00 0.00 74 1012.9
20260905000509 91 284 0.0 0.0 0.00 0.00 0.00 71 1012.8
20260905000137 92 0 0.0 0.0 0.00 0.00 0.00 70 1013.0
20260905000031 92 284 0.0 0.0 0.00 0.00 0.00 70 1012.8
20260904235507 92 284 0.0 0.0 0.00 0.00 0.00 70 1012.9
20260904235004 92 284 0.0 0.0 0.00 0.00 0.00 69 1012.9
20260904234602 92 0 0.0 0.9 0.00 0.00 0.00 69 1013.0
20260904234511 92 284 0.0 0.9 0.00 0.00 0.00 69 1012.7
20260904234007 91 284 0.0 1.7 0.00 0.00 0.00 68 1012.9
20260904233507 91 284 0.9 1.7 0.00 0.00 0.00 65 1013.0
20260904233101 91 280 0.9 1.7 0.00 0.00 0.00 65 1013.1
20260904233020 91 280 0.9 1.7 0.00 0.00 0.00 64 1013.0
20260904232510 92 290 0.9 2.6 0.00 0.00 0.00 64 1013.0
20260904232009 92 286 0.9 2.6 0.00 0.00 0.00 64 1013.1
20260904231602 92 284 0.9 3.5 0.00 0.00 0.00 67 1013.3
20260904231525 92 284 0.0 2.6 0.00 0.00 0.00 67 1013.2
20260904231008 92 283 0.9 3.5 0.00 0.00 0.00 67 1013.1
20260904230508 92 283 2.6 3.5 0.00 0.00 0.00 66 1013.1
20260904230117 92 278 1.7 2.6 0.00 0.00 0.00 66 1013.3
20260904230045 92 284 1.7 2.6 0.00 0.00 0.00 66 1013.2
20260904225508 93 284 0.9 1.7 0.00 0.00 0.00 65 1013.1
20260904225010 93 247 0.0 1.7 0.00 0.00 0.00 66 1013.1
20260904224602 93 273 0.0 3.5 0.00 0.00 0.00 66 1013.1
20260904224519 93 267 0.0 3.5 0.00 0.00 0.00 66 1013.0
20260904224010 93 279 0.9 3.5 0.00 0.00 0.00 65 1013.0
20260904223504 93 285 0.9 2.6 0.00 0.00 0.00 64 1013.0
20260904223102 93 276 0.0 3.5 0.00 0.00 0.00 65 1013.0
20260904223014 93 271 0.9 3.5 0.00 0.00 0.00 63 1013.0
20260904222507 94 277 0.9 3.5 0.00 0.00 0.00 62 1012.9
20260904222008 94 278 0.0 3.5 0.00 0.00 0.00 64 1012.8
20260904221608 93 274 0.9 3.5 0.00 0.00 0.00 64 1012.9
20260904221521 93 283 0.9 3.5 0.00 0.00 0.00 65 1012.7
20260904221011 93 273 0.9 3.5 0.00 0.00 0.00 64 1012.8
20260904220508 93 286 1.7 4.3 0.00 0.00 0.00 64 1012.7
20260904220105 93 289 1.7 4.3 0.00 0.00 0.00 63 1012.9
20260904220026 93 273 2.6 4.3 0.00 0.00 0.00 63 1012.7
20260904215510 94 276 1.7 4.3 0.00 0.00 0.00 60 1012.8
20260904215010 94 242 0.9 2.6 0.00 0.00 0.00 63 1012.8
20260904214608 94 299 0.9 2.6 0.00 0.00 0.00 62 1012.9
20260904214523 94 290 0.9 2.6 0.00 0.00 0.00 63 1012.9
20260904214009 94 234 0.0 2.6 0.00 0.00 0.00 63 1012.9
20260904213512 94 280 0.9 2.6 0.00 0.00 0.00 63 1013.0
20260904213103 94 301 0.9 3.5 0.00 0.00 0.00 63 1013.0
20260904213023 94 260 0.9 3.5 0.00 0.00 0.00 64 1012.9
20260904212509 94 269 0.9 3.5 0.00 0.00 0.00 67 1012.9
20260904212008 93 269 0.9 2.6 0.00 0.00 0.00 65 1013.0
20260904211605 93 252 0.9 3.5 0.00 0.00 0.00 66 1013.3
20260904211516 93 260 0.0 2.6 0.00 0.00 0.00 66 1013.2
20260904211009 93 282 0.9 3.5 0.00 0.00 0.00 67 1013.2
20260904210510 93 284 1.7 3.5 0.00 0.00 0.00 64 1013.3
20260904210104 93 278 2.6 4.3 0.00 0.00 0.00 62 1013.5
20260904210026 93 284 2.6 4.3 0.00 0.00 0.00 64 1013.3
20260904205512 94 273 1.7 4.3 0.00 0.00 0.00 64 1013.4
20260904205012 93 259 0.9 4.3 0.00 0.00 0.00 65 1013.4
20260904204603 93 199 2.6 4.3 0.00 0.00 0.00 63 1013.5
20260904204525 93 245 2.6 4.3 0.00 0.00 0.00 63 1013.4
20260904204011 93 288 1.7 3.5 0.00 0.00 0.00 64 1013.5
20260904203503 93 274 1.7 3.5 0.00 0.00 0.00 64 1013.5
20260904203100 93 281 1.7 5.2 0.00 0.00 0.00 62 1013.7
20260904203007 93 288 1.7 5.2 0.00 0.00 0.00 62 1013.6
20260904202502 94 285 2.6 5.2 0.00 0.00 0.00 63 1013.7
20260904202006 94 289 0.9 4.3 0.00 0.00 0.00 65 1013.7
20260904201628 94 245 1.7 5.2 0.00 0.00 0.00 63 1013.8
20260904201511 94 262 2.6 5.2 0.00 0.00 0.00 62 1013.7
20260904201007 94 262 2.6 5.2 0.00 0.00 0.00 63 1013.7
20260904200506 94 272 2.6 5.2 0.00 0.00 0.00 62 1013.8
20260904200104 94 139 0.9 3.5 0.00 0.00 0.00 64 1014.0
20260904200039 94 170 0.9 3.5 0.00 0.00 0.00 64 1013.8
20260904195510 94 211 1.7 4.3 0.00 0.00 0.00 64 1013.9
20260904195013 94 291 1.7 5.2 0.00 0.00 0.00 64 1013.9
20260904194601 94 282 2.6 5.2 0.00 0.00 0.00 63 1014.2
20260904194540 94 276 3.5 5.2 0.00 0.00 0.00 63 1014.1
20260904194015 94 253 1.7 3.5 0.00 0.00 0.00 65 1014.1
20260904193510 94 238 0.9 3.5 0.00 0.00 0.00 64 1014.1
20260904193101 94 281 1.7 4.3 0.00 0.00 0.00 63 1014.4
20260904193027 94 285 1.7 4.3 0.00 0.00 0.00 61 1014.1
20260904192515 94 269 0.9 5.2 0.00 0.00 0.00 64 1014.2
20260904192003 94 265 2.6 5.2 0.00 0.00 0.00 63 1014.3
20260904191602 94 271 1.7 3.5 0.00 0.00 0.00 65 1014.4
20260904191516 94 265 0.9 3.5 0.00 0.00 0.00 64 1014.3
20260904191004 94 265 0.9 4.3 0.00 0.00 0.00 65 1014.3
20260904190504 94 257 0.9 4.3 0.00 0.00 0.00 65 1014.3
20260904190105 94 283 0.9 3.5 0.00 0.00 0.00 62 1014.7
20260904190016 94 254 0.9 3.5 0.00 0.00 0.00 64 1014.5
20260904185507 94 268 0.9 4.3 0.00 0.00 0.00 65 1014.7
20260904185007 94 276 2.6 4.3 0.00 0.00 0.00 63 1014.6
20260904184602 94 278 1.7 4.3 0.00 0.00 0.00 63 1014.8
20260904184528 94 281 2.6 4.3 0.00 0.00 0.00 62 1014.6
20260904184011 94 267 0.9 5.2 0.00 0.00 0.00 62 1014.6
20260904183511 93 259 3.5 5.2 0.00 0.00 0.00 62 1014.6
20260904183116 94 295 2.6 5.2 0.00 0.00 0.00 63 1014.7
20260904183030 94 287 2.6 5.2 0.00 0.00 0.00 63 1014.6
20260904182513 94 271 2.6 5.2 0.00 0.00 0.00 62 1014.7
20260904182013 94 237 1.7 5.2 0.00 0.00 0.00 65 1014.7
20260904181556 94 245 1.7 4.3 0.00 0.00 0.00 64 1015.0
20260904181530 94 277 1.7 4.3 0.00 0.00 0.00 64 1014.7
20260904181017 94 234 2.6 4.3 0.00 0.00 0.00 62 1014.8
20260904180505 94 262 1.7 3.5 0.00 0.00 0.00 64 1014.7
20260904180103 94 267 1.7 5.2 0.00 0.00 0.00 65 1015.1
20260904180013 94 248 1.7 3.5 0.00 0.00 0.00 64 1014.9
20260904175507 93 293 1.7 5.2 0.00 0.00 0.00 66 1014.9
20260904175007 93 283 2.6 5.2 0.00 0.00 0.00 60 1015.0
20260904174605 93 289 2.6 5.2 0.00 0.00 0.00 63 1015.3
20260904174528 93 255 1.7 5.2 0.00 0.00 0.00 63 1015.0
20260904174007 93 291 1.7 6.1 0.00 0.00 0.00 66 1015.0
20260904173509 93 229 1.7 6.1 0.00 0.00 0.00 63 1015.1
20260904173103 93 284 1.7 7.0 0.00 0.00 0.00 66 1015.4
20260904173023 93 279 1.7 7.0 0.00 0.00 0.00 68 1015.1
20260904172510 92 293 3.5 7.0 0.00 0.00 0.00 64 1015.1
20260904172014 92 258 1.7 4.3 0.00 0.00 0.00 67 1015.2
20260904171616 92 262 1.7 4.3 0.00 0.00 0.00 68 1015.5
20260904171527 92 245 1.7 4.3 0.00 0.00 0.00 67 1015.2
20260904171011 92 267 0.9 4.3 0.00 0.00 0.00 67 1015.3
20260904170511 92 276 1.7 4.3 0.00 0.00 0.00 68 1015.3
20260904170105 91 274 0.9 5.2 0.00 0.00 0.00 66 1015.8
20260904170043 91 94 0.9 5.2 0.00 0.00 0.00 68 1015.4
20260904165511 91 293 2.6 5.2 0.00 0.00 0.00 69 1015.5
20260904165003 91 295 2.6 4.3 0.00 0.00 0.00 65 1015.5
20260904164626 91 282 1.7 4.3 0.00 0.00 0.00 67 1015.9
20260904164513 91 276 1.7 4.3 0.00 0.00 0.00 66 1015.5
20260904164006 91 295 1.7 4.3 0.00 0.00 0.00 67 1015.5
20260904163508 91 244 0.9 4.3 0.00 0.00 0.00 69 1015.5
20260904163113 90 283 1.7 5.2 0.00 0.00 0.00 69 1015.8
20260904163018 90 288 1.7 5.2 0.00 0.00 0.00 69 1015.5
20260904162510 90 283 2.6 5.2 0.00 0.00 0.00 68 1015.4
20260904162011 90 262 2.6 7.0 0.00 0.00 0.00 68 1015.5
20260904161605 90 253 2.6 7.0 0.00 0.00 0.00 70 1015.7
20260904161524 90 227 1.7 7.0 0.00 0.00 0.00 70 1015.5
20260904161016 90 311 2.6 4.3 0.00 0.00 0.00 69 1015.5
20260904160513 90 236 1.7 6.1 0.00 0.00 0.00 69 1015.5
20260904160116 89 278 2.6 6.1 0.00 0.00 0.00 70 1015.6
20260904160026 89 280 2.6 6.1 0.00 0.00 0.00 71 1015.5
20260904155515 89 304 1.7 6.1 0.00 0.00 0.00 69 1015.4
20260904155014 89 276 1.7 6.1 0.00 0.00 0.00 69 1015.4
20260904154605 89 282 3.5 5.2 0.00 0.00 0.00 69 1015.6
20260904154531 89 278 3.5 5.2 0.00 0.00 0.00 69 1015.4
20260904154013 89 259 1.7 3.5 0.00 0.00 0.00 71 1015.4
20260904153504 89 284 1.7 4.3 0.00 0.00 0.00 72 1015.3
20260904153114 88 237 1.7 5.2 0.00 0.00 0.00 72 1015.6
20260904153014 88 241 1.7 5.2 0.00 0.00 0.00 71 1015.3
20260904152507 88 268 1.7 5.2 0.00 0.00 0.00 71 1015.3
20260904152009 88 262 1.7 5.2 0.00 0.00 0.00 72 1015.3
20260904151605 87 256 2.6 4.3 0.00 0.00 0.00 72 1015.5
20260904151523 87 274 2.6 4.3 0.00 0.00 0.00 72 1015.2
20260904151012 87 288 2.6 7.0 0.00 0.00 0.00 72 1015.1
20260904150509 87 276 2.6 7.0 0.00 0.00 0.00 72 1015.1
20260904150106 87 261 2.6 6.1 0.00 0.00 0.00 73 1015.4
20260904150034 86 281 2.6 6.1 0.00 0.00 0.00 73 1015.1
20260904145514 86 291 2.6 6.1 0.00 0.00 0.00 74 1015.1
20260904145012 86 285 3.5 6.1 0.00 0.00 0.00 72 1015.1
20260904144603 86 274 3.5 5.2 0.00 0.00 0.00 72 1015.2
20260904144530 86 299 3.5 5.2 0.00 0.00 0.00 72 1015.1
20260904144014 85 221 3.5 6.1 0.00 0.00 0.00 73 1015.1
20260904143516 85 274 2.6 7.0 0.00 0.00 0.00 74 1015.1
20260904143103 85 282 3.5 7.0 0.00 0.00 0.00 74 1015.2
20260904143032 85 288 3.5 7.0 0.00 0.00 0.00 74 1014.9
20260904142515 85 271 3.5 6.1 0.00 0.00 0.00 74 1014.9
20260904142009 84 321 2.6 7.8 0.00 0.00 0.00 75 1014.8
20260904141601 84 294 3.5 7.8 0.00 0.00 0.00 75 1015.0
20260904141517 84 275 3.5 7.8 0.00 0.00 0.00 74 1014.9
20260904141007 84 283 3.5 7.8 0.00 0.00 0.00 75 1014.8
20260904140509 84 268 4.3 6.1 0.00 0.00 0.00 75 1014.9
20260904140103 84 288 2.6 5.2 0.00 0.00 0.00 75 1015.0
20260904140021 84 235 3.5 5.2 0.00 0.00 0.00 75 1014.9
20260904135512 83 241 2.6 5.2 0.00 0.00 0.00 76 1014.9
20260904135012 83 242 2.6 5.2 0.00 0.00 0.00 77 1015.0
20260904134606 83 305 2.6 5.2 0.00 0.00 0.00 77 1014.9
20260904134531 83 309 2.6 5.2 0.00 0.00 0.00 78 1015.0
20260904134016 82 313 2.6 5.2 0.00 0.00 0.00 78 1015.0
20260904133515 82 270 2.6 5.2 0.00 0.00 0.00 78 1015.0
20260904133105 82 281 2.6 5.2 0.00 0.00 0.00 78 1015.0
20260904133033 82 243 1.7 5.2 0.00 0.00 0.00 78 1015.0
20260904132515 82 274 2.6 4.3 0.00 0.00 0.00 78 1015.0
20260904132015 81 275 1.7 4.3 0.00 0.00 0.00 78 1015.1
20260904131618 81 289 2.6 4.3 0.00 0.00 0.00 78 1015.0
20260904131535 81 268 2.6 4.3 0.00 0.00 0.00 78 1015.0
20260904131014 81 296 1.7 4.3 0.00 0.00 0.00 78 1015.0
20260904130507 81 300 1.7 4.3 0.00 0.00 0.00 79 1014.8
20260904130104 81 255 1.7 3.5 0.00 0.00 0.00 79 1014.7
20260904130023 81 302 1.7 3.5 0.00 0.00 0.00 79 1014.7
20260904125508 80 253 1.7 4.3 0.00 0.00 0.00 79 1014.6
20260904125014 80 250 1.7 4.3 0.00 0.00 0.00 79 1014.5
20260904124600 80 302 1.7 4.3 0.00 0.00 0.00 79 1014.5
20260904124526 80 281 1.7 4.3 0.00 0.00 0.00 80 1014.4
20260904124011 79 316 1.7 4.3 0.00 0.00 0.00 81 1014.4
20260904123514 79 275 1.7 2.6 0.00 0.00 0.00 81 1014.3
20260904123105 79 288 1.7 3.5 0.00 0.00 0.00 81 1014.3
20260904123031 79 251 1.7 3.5 0.00 0.00 0.00 81 1014.2
20260904122516 79 277 1.7 3.5 0.00 0.00 0.00 81 1014.1
20260904122015 78 248 1.7 3.5 0.00 0.00 0.00 81 1014.1
20260904121558 78 281 1.7 3.5 0.00 0.00 0.00 82 1014.2
20260904121533 78 268 1.7 3.5 0.00 0.00 0.00 82 1014.0
20260904121017 77 281 1.7 3.5 0.00 0.00 0.00 83 1013.9
20260904120516 77 256 1.7 3.5 0.00 0.00 0.00 84 1013.9
20260904120104 76 284 1.7 3.5 0.00 0.00 0.00 85 1014.1
20260904120035 76 274 1.7 3.5 0.00 0.00 0.00 85 1013.9
20260904115516 76 310 0.9 1.7 0.00 0.00 0.00 87 1013.8
20260904115010 75 299 0.9 2.6 0.00 0.00 0.00 87 1013.8
20260904114605 75 290 0.9 2.6 0.00 0.00 0.00 87 1014.0
20260904114524 75 264 0.9 2.6 0.00 0.00 0.00 87 1013.8
20260904114014 75 285 0.9 2.6 0.00 0.00 0.00 88 1013.8
20260904113503 75 273 0.9 2.6 0.00 0.00 0.00 88 1013.9
20260904113102 75 284 0.9 2.6 0.00 0.00 0.00 88 1014.0
20260904113004 75 307 0.9 2.6 0.00 0.00 0.00 88 1013.9
20260904112503 75 280 0.9 2.6 0.00 0.00 0.00 88 1013.8
20260904112003 75 262 0.9 2.6 0.00 0.00 0.00 88 1013.8
20260904111600 75 274 0.9 2.6 0.00 0.00 0.00 87 1014.0
20260904111508 75 255 0.9 2.6 0.00 0.00 0.00 87 1013.8
20260904111003 75 281 0.9 2.6 0.00 0.00 0.00 87 1013.9
20260904110503 75 301 0.9 2.6 0.00 0.00 0.00 87 1013.9
20260904110014 75 281 0.9 1.7 0.00 0.00 0.00 87 1013.8
20260904105508 75 290 0.9 1.7 0.00 0.00 0.00 87 1013.8
20260904105008 75 262 0.9 1.7 0.00 0.00 0.00 88 1013.9
20260904104602 75 262 0.9 1.7 0.00 0.00 0.00 88 1014.0
20260904104522 75 283 0.9 1.7 0.00 0.00 0.00 88 1013.9
20260904104014 75 278 0.9 1.7 0.00 0.00 0.00 88 1014.0
20260904103512 75 283 0.0 1.7 0.00 0.00 0.00 88 1014.0
20260904103101 75 286 0.9 2.6 0.00 0.00 0.00 88 1014.1
20260904103027 75 275 0.9 1.7 0.00 0.00 0.00 88 1014.0
20260904102513 75 302 0.9 2.6 0.00 0.00 0.00 88 1014.0
20260904102003 75 278 0.9 2.6 0.00 0.00 0.00 88 1014.1
20260904101610 75 252 0.9 1.7 0.00 0.00 0.00 88 1014.2
20260904101510 75 279 0.9 1.7 0.00 0.00 0.00 88 1014.0
20260904101004 75 293 0.0 1.7 0.00 0.00 0.00 88 1014.0
20260904100504 75 295 0.0 1.7 0.00 0.00 0.00 88 1014.0
20260904100107 75 271 0.0 1.7 0.00 0.00 0.00 87 1014.2
20260904100011 75 290 0.0 1.7 0.00 0.00 0.00 87 1014.1
20260904095504 75 278 0.9 1.7 0.00 0.00 0.00 87 1014.0
20260904095003 75 293 0.9 1.7 0.00 0.00 0.00 87 1014.1
20260904094607 75 283 0.9 1.7 0.00 0.00 0.00 87 1014.2
20260904094516 75 273 0.9 1.7 0.00 0.00 0.00 87 1014.0
20260904094007 75 273 0.9 1.7 0.00 0.00 0.00 86 1014.0
20260904093507 75 266 0.0 1.7 0.00 0.00 0.00 86 1014.1
20260904093118 76 278 0.0 0.9 0.00 0.00 0.00 86 1014.1
20260904093049 76 277 0.0 0.9 0.00 0.00 0.00 86 1014.0
20260904092511 76 290 0.0 1.7 0.00 0.00 0.00 86 1013.9
20260904092011 76 291 0.0 1.7 0.00 0.00 0.00 86 1014.0
20260904091615 76 0 0.0 2.6 0.00 0.00 0.00 86 1014.1
20260904091531 76 293 0.0 2.6 0.00 0.00 0.00 86 1014.0
20260904091012 76 305 0.0 2.6 0.00 0.00 0.00 86 1013.9
20260904090503 76 243 0.0 1.7 0.00 0.00 0.00 86 1013.8
20260904090100 76 259 0.0 1.7 0.00 0.00 0.00 85 1013.9
20260904090007 76 269 0.0 1.7 0.00 0.00 0.00 85 1013.7
20260904085504 76 297 0.0 1.7 0.00 0.00 0.00 85 1013.6
20260904085004 76 270 0.0 2.6 0.00 0.00 0.00 85 1013.6
20260904084557 76 251 0.9 2.6 0.00 0.00 0.00 85 1013.8
20260904084512 76 293 0.9 2.6 0.00 0.00 0.00 85 1013.6
20260904084007 76 235 0.9 2.6 0.00 0.00 0.00 85 1013.6
20260904083507 76 280 0.9 2.6 0.00 0.00 0.00 85 1013.6
20260904083107 76 283 0.9 2.6 0.00 0.00 0.00 85 1013.8
20260904083017 76 242 0.9 2.6 0.00 0.00 0.00 85 1013.6
20260904082508 76 332 0.9 2.6 0.00 0.00 0.00 85 1013.5
20260904082008 76 300 0.9 2.6 0.00 0.00 0.00 85 1013.5
20260904081557 76 221 0.9 2.6 0.00 0.00 0.00 85 1013.7
20260904081524 76 260 0.9 2.6 0.00 0.00 0.00 85 1013.5
20260904081012 76 292 0.9 2.6 0.00 0.00 0.00 85 1013.5
20260904080513 76 275 0.9 2.6 0.00 0.00 0.00 86 1013.6
20260904080027 76 238 0.0 0.9 0.00 0.00 0.00 86 1013.6
20260904075514 76 290 0.0 1.7 0.00 0.00 0.00 86 1013.7
20260904075003 76 226 0.0 1.7 0.00 0.00 0.00 86 1013.6
20260904074559 76 274 0.0 1.7 0.00 0.00 0.00 86 1013.8
20260904074509 76 281 0.0 1.7 0.00 0.00 0.00 86 1013.6
20260904074003 75 298 0.0 0.9 0.00 0.00 0.00 87 1013.7
20260904073507 75 287 0.0 0.0 0.00 0.00 0.00 87 1013.7
20260904073117 75 0 0.0 0.9 0.00 0.00 0.00 88 1013.9
20260904073035 75 255 0.0 0.9 0.00 0.00 0.00 88 1013.8
20260904072506 75 253 0.0 0.9 0.00 0.00 0.00 88 1013.9
20260904072010 75 239 0.0 0.0 0.00 0.00 0.00 88 1013.9
20260904071600 75 0 0.0 0.0 0.00 0.00 0.00 88 1014.1
20260904071522 75 274 0.0 0.0 0.00 0.00 0.00 88 1014.0
20260904071011 75 266 0.0 0.0 0.00 0.00 0.00 88 1013.9
20260904070512 75 268 0.0 0.0 0.00 0.00 0.00 88 1014.2
20260904070028 75 272 0.0 0.0 0.00 0.00 0.00 88 1014.0
20260904065514 75 271 0.0 0.9 0.00 0.00 0.00 89 1014.0
20260904065015 75 270 0.0 0.9 0.00 0.00 0.00 89 1014.1
20260904064608 75 0 0.0 0.9 0.00 0.00 0.00 89 1014.3
20260904064529 75 270 0.0 0.9 0.00 0.00 0.00 89 1014.2
20260904064015 75 255 0.0 0.9 0.00 0.00 0.00 89 1014.1
20260904063504 75 263 0.0 0.9 0.00 0.00 0.00 89 1014.1
20260904063107 75 0 0.0 0.9 0.00 0.00 0.00 89 1014.3
20260904063011 75 214 0.0 0.9 0.00 0.00 0.00 89 1014.2
20260904062504 75 245 0.0 0.9 0.00 0.00 0.00 89 1014.1
20260904062004 75 261 0.0 0.9 0.00 0.00 0.00 89 1014.1
20260904061600 75 0 0.0 0.9 0.00 0.00 0.00 89 1014.2
20260904061518 75 234 0.0 0.9 0.00 0.00 0.00 89 1014.1
20260904061008 75 234 0.0 0.9 0.00 0.00 0.00 89 1014.2
20260904060508 75 288 0.0 0.0 0.00 0.00 0.00 90 1014.2
20260904060127 75 0 0.0 0.0 0.00 0.00 0.00 90 1014.3
20260904060028 75 287 0.0 0.0 0.00 0.00 0.00 90 1014.1
20260904055511 75 270 0.0 0.0 0.00 0.00 0.00 90 1014.1
20260904055012 75 259 0.0 0.0 0.00 0.00 0.00 90 1014.2
20260904054636 75 0 0.0 0.0 0.00 0.00 0.00 90 1014.3
20260904054530 75 259 0.0 0.0 0.00 0.00 0.00 90 1014.1
20260904054015 75 257 0.0 0.0 0.00 0.00 0.00 91 1014.2
20260904053515 75 222 0.0 0.0 0.00 0.00 0.00 90 1014.2
20260904053058 75 0 0.0 0.0 0.00 0.00 0.00 90 1014.3